Regional Weather Roundup
Issued by NWS

Home | Current Version | Previous Version | Text Only | Print | Product List | Glossary Off
Versions: 1 2 3 4 5 6 7 8 9 10 11 12 13 14 15 16 17 18 19 20 21 22 23 24 25 26 27 28 29 30 31 32 33 34 35 36 37 38 39 40 41 42 43 44 45 46 47 48 49 50

000
ASUS43 KFSD 271410
RWRSD

WEATHER ROUNDUP FOR SOUTH DAKOTA
NATIONAL WEATHER SERVICE SIOUX FALLS SD
900 AM CDT THU AUG 27 2015

NOTE: "FAIR" INDICATES FEW OR NO CLOUDS BELOW 12,000 FEET WITH NO
SIGNIFICANT WEATHER AND/OR OBSTRUCTIONS TO VISIBILITY.


SDZ001>005-009-010-012>017-271500-
NORTHWEST AND NORTH CENTRAL SOUTH DAKOTA

CITY           SKY/WX    TMP DP  RH WIND       PRES   REMARKS
BUFFALO          N/A     65  60  84 SE5       29.96R
MOBRIDGE       MOSUNNY   67  66  97 VRB3      29.96R
$$

SDZ012>016-024>037-041>051-057-063-072>074-271500-
SOUTHWEST AND SOUTH CENTRAL SOUTH DAKOTA

CITY           SKY/WX    TMP DP  RH WIND       PRES   REMARKS
RAPID CTY ARPT CLOUDY    64  61  90 N5        30.03F
PIERRE         CLOUDY    68  65  90 W7        29.96R
CUSTER         CLOUDY    60  55  83 W3        30.17F
ELLSWORTH AFB  CLOUDY    65  61  86 SW1       30.03S
PHILIP         CLOUDY    66  62  87 CALM      29.97S
PINE RIDGE     CLOUDY    66  56  70 NW12      30.02R
WINNER         FAIR      72  67  84 SE16      29.93F
$$

SDZ004>011-016>023-039-040-271500-
NORTHEAST SOUTH DAKOTA

CITY           SKY/WX    TMP DP  RH WIND       PRES   REMARKS
ABERDEEN       CLOUDY    66  63  90 S8        29.96R
WATERTOWN      CLOUDY    64  61  90 E7        29.95F
BROOKINGS      CLOUDY    63  57  82 SE14      29.95F
SISSETON         N/A     62  59  90 SE5       29.97F
$$

SDZ017-020-022-023-036>040-048>070-271500-
SOUTHEAST SOUTH DAKOTA

CITY           SKY/WX    TMP DP  RH WIND       PRES   REMARKS
SIOUX FALLS    CLOUDY    67  63  87 E5        29.91F
HURON          LGT RAIN  65  63  93 NE10      29.93S
CHAMBERLAIN    CLOUDY    67  65  94 SE8       29.92F
MITCHELL       CLOUDY    68  65  90 SW5       29.96R
YANKTON        CLOUDY    64  61  88 SE10      29.95F
$$

ABBREVIATIONS USED IN REMARKS
   TC - TEMPERATURE IN CELSIUS
  WCI - WIND CHILL INDEX
   HX - HEAT INDEX
  VSB - VISIBILITY



USA.gov is the U.S. government's official web portal to all federal, state and local government web resources and services.